| time (UTC) | temp C | wind direction | speed KPH | gust KPH | rain 1hr cm | rain 24hr cm | rain mn cm | humidity % | barometer mb |
| 20260505181732 | 27 | 1 | 3.2 | 3.2 | 0.00 | 0.00 | 0.00 | 36 | 1011.8 |
| 20260505181229 | 27 | 263 | 6.4 | 9.7 | 0.00 | 0.00 | 0.00 | 37 | 1011.6 |
| 20260505180726 | 27 | 204 | 4.8 | 8.0 | 0.00 | 0.00 | 0.00 | 38 | 1012.0 |
| 20260505180222 | 27 | 182 | 6.4 | 9.7 | 0.00 | 0.00 | 0.00 | 39 | 1011.7 |
| 20260505175719 | 27 | 298 | 6.4 | 11.3 | 0.00 | 0.00 | 0.00 | 36 | 1012.0 |
| 20260505175215 | 27 | 248 | 4.8 | 8.0 | 0.00 | 0.00 | 0.00 | 38 | 1011.9 |
| 20260505174712 | 27 | 333 | 1.6 | 3.2 | 0.00 | 0.00 | 0.00 | 38 | 1011.8 |
| 20260505174209 | 27 | 285 | 4.8 | 4.8 | 0.00 | 0.00 | 0.00 | 39 | 1012.0 |
| 20260505173705 | 27 | 197 | 4.8 | 4.8 | 0.00 | 0.00 | 0.00 | 39 | 1012.1 |
| 20260505173202 | 27 | 244 | 3.2 | 3.2 | 0.00 | 0.00 | 0.00 | 38 | 1012.1 |
| 20260505172659 | 27 | 223 | 3.2 | 3.2 | 0.00 | 0.00 | 0.00 | 40 | 1012.2 |
| 20260505172156 | 26 | 220 | 4.8 | 8.0 | 0.00 | 0.00 | 0.00 | 41 | 1012.3 |
| 20260505171655 | 27 | 258 | 4.8 | 4.8 | 0.00 | 0.00 | 0.00 | 40 | 1012.3 |
| 20260505171153 | 27 | 188 | 4.8 | 9.7 | 0.00 | 0.00 | 0.00 | 40 | 1012.0 |
| 20260505170650 | 26 | 251 | 1.6 | 1.6 | 0.00 | 0.00 | 0.00 | 42 | 1012.3 |
| 20260505170146 | 26 | 223 | 4.8 | 8.0 | 0.00 | 0.00 | 0.00 | 42 | 1012.2 |
| 20260505165641 | 27 | 180 | 6.4 | 9.7 | 0.00 | 0.00 | 0.00 | 42 | 1012.2 |
| 20260505165137 | 26 | 227 | 4.8 | 8.0 | 0.00 | 0.00 | 0.00 | 43 | 1012.2 |
| 20260505164633 | 26 | 246 | 4.8 | 4.8 | 0.00 | 0.00 | 0.00 | 43 | 1012.1 |
| 20260505164131 | 26 | 268 | 6.4 | 9.7 | 0.00 | 0.00 | 0.00 | 42 | 1012.5 |
| 20260505163629 | 27 | 178 | 6.4 | 9.7 | 0.00 | 0.00 | 0.00 | 43 | 1012.4 |
| 20260505163126 | 26 | 258 | 3.2 | 4.8 | 0.00 | 0.00 | 0.00 | 44 | 1012.2 |
| 20260505162623 | 26 | 180 | 4.8 | 4.8 | 0.00 | 0.00 | 0.00 | 44 | 1012.4 |
| 20260505162121 | 26 | 307 | 3.2 | 3.2 | 0.00 | 0.00 | 0.00 | 44 | 1012.2 |
| 20260505161618 | 26 | 180 | 4.8 | 4.8 | 0.00 | 0.00 | 0.00 | 44 | 1012.6 |
| 20260505161115 | 27 | 268 | 1.6 | 1.6 | 0.00 | 0.00 | 0.00 | 42 | 1012.5 |
| 20260505160613 | 27 | 226 | 6.4 | 8.0 | 0.00 | 0.00 | 0.00 | 41 | 1012.4 |
| 20260505160110 | 27 | 251 | 1.6 | 1.6 | 0.00 | 0.00 | 0.00 | 42 | 1012.5 |
| 20260505153049 | 26 | 194 | 4.8 | 4.8 | 0.00 | 0.00 | 0.00 | 40 | 1012.8 |
| 20260505152546 | 27 | 198 | 3.2 | 8.0 | 0.00 | 0.00 | 0.00 | 41 | 1012.8 |
| 20260505152042 | 27 | 287 | 1.6 | 1.6 | 0.00 | 0.00 | 0.00 | 40 | 1012.9 |
| 20260505151537 | 26 | 229 | 4.8 | 4.8 | 0.00 | 0.00 | 0.00 | 41 | 1012.9 |
| 20260505151035 | 26 | 257 | 1.6 | 1.6 | 0.00 | 0.00 | 0.00 | 43 | 1012.8 |
| 20260505150531 | 26 | 256 | 3.2 | 3.2 | 0.00 | 0.00 | 0.00 | 43 | 1012.7 |
| 20260505140456 | 24 | 288 | 1.6 | 1.6 | 0.00 | 0.00 | 0.00 | 46 | 1013.0 |
| 20260505124909 | 19 | 250 | 3.2 | 3.2 | 0.00 | 0.00 | 0.00 | 59 | 1013.3 |
| 20260505124407 | 18 | 214 | 3.2 | 3.2 | 0.00 | 0.00 | 0.00 | 59 | 1013.2 |
| 20260505123903 | 18 | 196 | 1.6 | 3.2 | 0.00 | 0.00 | 0.00 | 61 | 1013.1 |
| 20260505123359 | 17 | 253 | 4.8 | 4.8 | 0.00 | 0.00 | 0.00 | 62 | 1012.9 |
| 20260505122855 | 17 | 282 | 1.6 | 3.2 | 0.00 | 0.00 | 0.00 | 62 | 1013.1 |
| 20260505122353 | 17 | 241 | 4.8 | 4.8 | 0.00 | 0.00 | 0.00 | 63 | 1013.0 |
| 20260505121849 | 17 | 248 | 3.2 | 3.2 | 0.00 | 0.00 | 0.00 | 63 | 1013.1 |
| 20260505121346 | 17 | 210 | 3.2 | 4.8 | 0.00 | 0.00 | 0.00 | 64 | 1013.1 |
| 20260505120842 | 17 | 298 | 1.6 | 1.6 | 0.00 | 0.00 | 0.00 | 64 | 1012.9 |
| 20260505120338 | 17 | 248 | 4.8 | 8.0 | 0.00 | 0.00 | 0.00 | 64 | 1012.9 |
| 20260505115837 | 16 | 272 | 1.6 | 4.8 | 0.00 | 0.00 | 0.00 | 65 | 1012.7 |
| 20260505115334 | 16 | 277 | 3.2 | 3.2 | 0.00 | 0.00 | 0.00 | 65 | 1012.8 |
| 20260505114832 | 16 | 258 | 3.2 | 4.8 | 0.00 | 0.00 | 0.00 | 65 | 1012.8 |
| 20260505114328 | 16 | 197 | 4.8 | 4.8 | 0.00 | 0.00 | 0.00 | 67 | 1012.9 |
| 20260505113825 | 16 | 265 | 4.8 | 4.8 | 0.00 | 0.00 | 0.00 | 67 | 1012.7 |
| 20260505113322 | 16 | 269 | 1.6 | 1.6 | 0.00 | 0.00 | 0.00 | 68 | 1013.0 |
| 20260505112817 | 16 | 192 | 3.2 | 3.2 | 0.00 | 0.00 | 0.00 | 68 | 1012.9 |
| 20260505112315 | 16 | 222 | 3.2 | 3.2 | 0.00 | 0.00 | 0.00 | 69 | 1012.7 |
| 20260505111810 | 15 | 280 | 3.2 | 3.2 | 0.00 | 0.00 | 0.00 | 69 | 1012.5 |
| 20260505111306 | 15 | 262 | 1.6 | 1.6 | 0.00 | 0.00 | 0.00 | 69 | 1012.5 |
| 20260505110802 | 15 | 265 | 1.6 | 1.6 | 0.00 | 0.00 | 0.00 | 69 | 1012.4 |
| 20260505110300 | 15 | 273 | 1.6 | 3.2 | 0.00 | 0.00 | 0.00 | 70 | 1012.5 |
| 20260505101734 | 15 | 236 | 4.8 | 8.0 | 0.00 | 0.00 | 0.00 | 71 | 1012.3 |
| 20260505101230 | 15 | 244 | 4.8 | 8.0 | 0.00 | 0.00 | 0.00 | 72 | 1012.2 |
| 20260505100727 | 15 | 247 | 4.8 | 4.8 | 0.00 | 0.00 | 0.00 | 71 | 1012.1 |
| 20260505100223 | 15 | 203 | 3.2 | 4.8 | 0.00 | 0.00 | 0.00 | 71 | 1011.9 |
| 20260505095718 | 15 | 243 | 3.2 | 4.8 | 0.00 | 0.00 | 0.00 | 71 | 1012.0 |
| 20260505095217 | 15 | 231 | 4.8 | 8.0 | 0.00 | 0.00 | 0.00 | 71 | 1011.9 |
| 20260505094712 | 15 | 255 | 3.2 | 4.8 | 0.00 | 0.00 | 0.00 | 71 | 1011.9 |
| 20260505094208 | 15 | 232 | 3.2 | 4.8 | 0.00 | 0.00 | 0.00 | 71 | 1011.9 |
| 20260505093705 | 15 | 190 | 3.2 | 3.2 | 0.00 | 0.00 | 0.00 | 71 | 1011.9 |
| 20260505093202 | 15 | 218 | 4.8 | 8.0 | 0.00 | 0.00 | 0.00 | 70 | 1011.8 |
| 20260505092659 | 15 | 267 | 4.8 | 4.8 | 0.00 | 0.00 | 0.00 | 70 | 1011.8 |
| 20260505092158 | 15 | 225 | 4.8 | 4.8 | 0.00 | 0.00 | 0.00 | 70 | 1011.7 |
| 20260505091654 | 15 | 227 | 4.8 | 8.0 | 0.00 | 0.00 | 0.00 | 70 | 1012.0 |
| 20260505091152 | 15 | 205 | 3.2 | 4.8 | 0.00 | 0.00 | 0.00 | 70 | 1011.8 |
| 20260505090649 | 15 | 250 | 6.4 | 9.7 | 0.00 | 0.00 | 0.00 | 69 | 1011.6 |
| 20260505090148 | 15 | 190 | 9.7 | 11.3 | 0.00 | 0.00 | 0.00 | 70 | 1011.8 |
| 20260505085645 | 15 | 238 | 8.0 | 9.7 | 0.00 | 0.00 | 0.00 | 69 | 1011.7 |
| 20260505085143 | 15 | 250 | 4.8 | 4.8 | 0.00 | 0.00 | 0.00 | 70 | 1011.8 |
| 20260505084640 | 15 | 184 | 4.8 | 4.8 | 0.00 | 0.00 | 0.00 | 70 | 1011.7 |
| 20260505084139 | 15 | 223 | 4.8 | 8.0 | 0.00 | 0.00 | 0.00 | 70 | 1011.9 |
| 20260505083636 | 15 | 219 | 3.2 | 4.8 | 0.00 | 0.00 | 0.00 | 71 | 1011.8 |
| 20260505083132 | 15 | 271 | 3.2 | 4.8 | 0.00 | 0.00 | 0.00 | 72 | 1011.8 |
| 20260505082628 | 15 | 259 | 3.2 | 4.8 | 0.00 | 0.00 | 0.00 | 72 | 1011.8 |
| 20260505082126 | 15 | 238 | 4.8 | 4.8 | 0.00 | 0.00 | 0.00 | 72 | 1012.0 |
| 20260505081621 | 15 | 237 | 4.8 | 4.8 | 0.00 | 0.00 | 0.00 | 72 | 1012.0 |
| 20260505081119 | 15 | 258 | 1.6 | 3.2 | 0.00 | 0.00 | 0.00 | 71 | 1011.9 |
| 20260505080615 | 15 | 249 | 3.2 | 3.2 | 0.00 | 0.00 | 0.00 | 72 | 1011.9 |
| 20260505080112 | 15 | 251 | 3.2 | 3.2 | 0.00 | 0.00 | 0.00 | 72 | 1011.7 |
| 20260505075608 | 15 | 234 | 3.2 | 3.2 | 0.00 | 0.00 | 0.00 | 71 | 1011.9 |
| 20260505075104 | 15 | 260 | 3.2 | 3.2 | 0.00 | 0.00 | 0.00 | 71 | 1011.9 |
| 20260505074601 | 15 | 237 | 3.2 | 3.2 | 0.00 | 0.00 | 0.00 | 71 | 1011.8 |
| 20260505074059 | 15 | 259 | 4.8 | 4.8 | 0.00 | 0.00 | 0.00 | 70 | 1011.8 |
| 20260505073556 | 15 | 229 | 3.2 | 4.8 | 0.00 | 0.00 | 0.00 | 70 | 1012.0 |
| 20260505073055 | 15 | 216 | 3.2 | 3.2 | 0.00 | 0.00 | 0.00 | 70 | 1012.0 |
| 20260505072549 | 15 | 218 | 3.2 | 3.2 | 0.00 | 0.00 | 0.00 | 70 | 1011.9 |
| 20260505072046 | 15 | 240 | 3.2 | 3.2 | 0.00 | 0.00 | 0.00 | 70 | 1011.9 |
| 20260505071541 | 15 | 210 | 3.2 | 3.2 | 0.00 | 0.00 | 0.00 | 70 | 1012.0 |
| 20260505071040 | 15 | 224 | 3.2 | 3.2 | 0.00 | 0.00 | 0.00 | 70 | 1012.0 |
| 20260505070537 | 15 | 234 | 3.2 | 3.2 | 0.00 | 0.00 | 0.00 | 70 | 1012.0 |
| 20260505070033 | 15 | 254 | 1.6 | 1.6 | 0.00 | 0.00 | 0.00 | 70 | 1011.7 |
| 20260505065529 | 15 | 209 | 3.2 | 3.2 | 0.00 | 0.00 | 0.00 | 70 | 1011.9 |
| 20260505065026 | 15 | 178 | 3.2 | 4.8 | 0.00 | 0.00 | 0.00 | 70 | 1011.7 |
| 20260505064523 | 15 | 217 | 4.8 | 8.0 | 0.00 | 0.00 | 0.00 | 70 | 1011.8 |
| 20260505064022 | 15 | 193 | 3.2 | 4.8 | 0.00 | 0.00 | 0.00 | 70 | 1011.6 |
| 20260505063518 | 15 | 234 | 4.8 | 4.8 | 0.00 | 0.00 | 0.00 | 70 | 1011.9 |
| 20260505063013 | 15 | 240 | 8.0 | 11.3 | 0.00 | 0.00 | 0.00 | 70 | 1011.9 |
| 20260505062511 | 15 | 184 | 4.8 | 8.0 | 0.00 | 0.00 | 0.00 | 70 | 1012.0 |
| 20260505062008 | 15 | 270 | 6.4 | 8.0 | 0.00 | 0.00 | 0.00 | 70 | 1011.9 |
| 20260505061505 | 15 | 244 | 3.2 | 3.2 | 0.00 | 0.00 | 0.00 | 69 | 1011.9 |
| 20260505061003 | 15 | 217 | 4.8 | 4.8 | 0.00 | 0.00 | 0.00 | 69 | 1011.9 |
| 20260505060500 | 15 | 226 | 4.8 | 8.0 | 0.00 | 0.00 | 0.00 | 69 | 1012.0 |
| 20260505055956 | 15 | 179 | 4.8 | 4.8 | 0.00 | 0.00 | 0.00 | 68 | 1011.9 |
| 20260505055452 | 15 | 223 | 4.8 | 4.8 | 0.00 | 0.00 | 0.00 | 68 | 1011.8 |
| 20260505054949 | 15 | 248 | 3.2 | 4.8 | 0.00 | 0.00 | 0.00 | 68 | 1012.0 |
| 20260505054446 | 15 | 235 | 4.8 | 4.8 | 0.00 | 0.00 | 0.00 | 68 | 1011.9 |
| 20260505053944 | 15 | 212 | 4.8 | 4.8 | 0.00 | 0.00 | 0.00 | 67 | 1011.9 |
| 20260505053441 | 15 | 185 | 4.8 | 8.0 | 0.00 | 0.00 | 0.00 | 66 | 1012.0 |
| 20260505052938 | 15 | 245 | 4.8 | 4.8 | 0.00 | 0.00 | 0.00 | 66 | 1011.8 |
| 20260505052435 | 15 | 243 | 6.4 | 9.7 | 0.00 | 0.00 | 0.00 | 66 | 1012.0 |
| 20260505051932 | 15 | 217 | 4.8 | 4.8 | 0.00 | 0.00 | 0.00 | 65 | 1012.0 |
| 20260505051429 | 15 | 182 | 4.8 | 4.8 | 0.00 | 0.00 | 0.00 | 65 | 1012.0 |
| 20260505050927 | 15 | 178 | 3.2 | 4.8 | 0.00 | 0.00 | 0.00 | 64 | 1012.1 |
| 20260505050425 | 15 | 175 | 8.0 | 9.7 | 0.00 | 0.00 | 0.00 | 63 | 1012.1 |
| 20260505041352 | 16 | 225 | 6.4 | 11.3 | 0.00 | 0.00 | 0.00 | 57 | 1011.9 |
| 20260505040849 | 16 | 188 | 6.4 | 9.7 | 0.00 | 0.00 | 0.00 | 57 | 1011.9 |
| 20260505040347 | 16 | 235 | 4.8 | 4.8 | 0.00 | 0.00 | 0.00 | 56 | 1011.7 |
| 20260505035844 | 16 | 260 | 1.6 | 3.2 | 0.00 | 0.00 | 0.00 | 55 | 1011.8 |
| 20260505035339 | 16 | 193 | 8.0 | 8.0 | 0.00 | 0.00 | 0.00 | 55 | 1011.7 |
| 20260505034837 | 16 | 213 | 4.8 | 4.8 | 0.00 | 0.00 | 0.00 | 54 | 1011.9 |
| 20260505034333 | 16 | 246 | 4.8 | 4.8 | 0.00 | 0.00 | 0.00 | 54 | 1011.7 |
| 20260505033831 | 16 | 244 | 4.8 | 8.0 | 0.00 | 0.00 | 0.00 | 53 | 1011.9 |
| 20260505033327 | 16 | 206 | 3.2 | 4.8 | 0.00 | 0.00 | 0.00 | 53 | 1012.0 |
| 20260505032826 | 16 | 202 | 6.4 | 8.0 | 0.00 | 0.00 | 0.00 | 52 | 1011.8 |
| 20260505032321 | 16 | 183 | 8.0 | 9.7 | 0.00 | 0.00 | 0.00 | 52 | 1012.0 |
| 20260505031819 | 17 | 184 | 6.4 | 9.7 | 0.00 | 0.00 | 0.00 | 51 | 1012.0 |
| 20260505031315 | 17 | 187 | 4.8 | 8.0 | 0.00 | 0.00 | 0.00 | 51 | 1012.0 |
| 20260505030813 | 17 | 186 | 8.0 | 9.7 | 0.00 | 0.00 | 0.00 | 51 | 1012.1 |
| 20260505030310 | 17 | 188 | 6.4 | 8.0 | 0.00 | 0.00 | 0.00 | 50 | 1012.0 |
| 20260505025804 | 17 | 216 | 6.4 | 9.7 | 0.00 | 0.00 | 0.00 | 50 | 1012.1 |
| 20260505025304 | 17 | 240 | 3.2 | 3.2 | 0.00 | 0.00 | 0.00 | 50 | 1012.0 |
| 20260505024800 | 17 | 190 | 8.0 | 12.9 | 0.00 | 0.00 | 0.00 | 50 | 1012.0 |
| 20260505024258 | 17 | 192 | 8.0 | 9.7 | 0.00 | 0.00 | 0.00 | 50 | 1012.3 |
| 20260505023755 | 17 | 232 | 6.4 | 9.7 | 0.00 | 0.00 | 0.00 | 50 | 1012.3 |
| 20260505023252 | 17 | 181 | 6.4 | 8.0 | 0.00 | 0.00 | 0.00 | 50 | 1012.1 |
| 20260505022750 | 17 | 190 | 4.8 | 4.8 | 0.00 | 0.00 | 0.00 | 50 | 1012.3 |
| 20260505022246 | 17 | 198 | 4.8 | 4.8 | 0.00 | 0.00 | 0.00 | 50 | 1012.2 |
| 20260505021742 | 17 | 240 | 4.8 | 4.8 | 0.00 | 0.00 | 0.00 | 49 | 1012.3 |
| 20260505021240 | 17 | 204 | 4.8 | 8.0 | 0.00 | 0.00 | 0.00 | 49 | 1012.2 |
| 20260505020735 | 17 | 261 | 3.2 | 4.8 | 0.00 | 0.00 | 0.00 | 49 | 1012.2 |
| 20260505020231 | 17 | 187 | 4.8 | 8.0 | 0.00 | 0.00 | 0.00 | 48 | 1012.2 |
| 20260505015728 | 17 | 236 | 4.8 | 8.0 | 0.00 | 0.00 | 0.00 | 48 | 1012.2 |
| 20260505015225 | 18 | 233 | 4.8 | 8.0 | 0.00 | 0.00 | 0.00 | 48 | 1012.2 |
| 20260505014722 | 18 | 223 | 3.2 | 3.2 | 0.00 | 0.00 | 0.00 | 48 | 1012.1 |
| 20260505014220 | 18 | 207 | 1.6 | 3.2 | 0.00 | 0.00 | 0.00 | 48 | 1012.2 |
| 20260505013716 | 18 | 249 | 3.2 | 3.2 | 0.00 | 0.00 | 0.00 | 47 | 1012.0 |
| 20260505013213 | 18 | 226 | 6.4 | 8.0 | 0.00 | 0.00 | 0.00 | 47 | 1012.1 |
| 20260505012711 | 18 | 209 | 6.4 | 8.0 | 0.00 | 0.00 | 0.00 | 47 | 1012.0 |
| 20260505012208 | 18 | 195 | 4.8 | 8.0 | 0.00 | 0.00 | 0.00 | 46 | 1012.1 |
| 20260505011704 | 18 | 181 | 4.8 | 4.8 | 0.00 | 0.00 | 0.00 | 45 | 1012.1 |
| 20260505011201 | 18 | 177 | 6.4 | 8.0 | 0.00 | 0.00 | 0.00 | 45 | 1012.1 |
| 20260505010656 | 18 | 235 | 3.2 | 4.8 | 0.00 | 0.00 | 0.00 | 45 | 1011.9 |
| 20260505010154 | 18 | 223 | 6.4 | 9.7 | 0.00 | 0.00 | 0.00 | 45 | 1012.0 |
| 20260505005650 | 18 | 174 | 6.4 | 9.7 | 0.00 | 0.00 | 0.00 | 46 | 1011.8 |
| 20260505005147 | 18 | 216 | 3.2 | 3.2 | 0.00 | 0.00 | 0.00 | 45 | 1011.7 |
| 20260505004644 | 18 | 231 | 1.6 | 1.6 | 0.00 | 0.00 | 0.00 | 45 | 1011.8 |
| 20260505004140 | 18 | 231 | 1.6 | 3.2 | 0.00 | 0.00 | 0.00 | 44 | 1011.7 |
| 20260505003638 | 18 | 204 | 3.2 | 4.8 | 0.00 | 0.00 | 0.00 | 44 | 1011.5 |
| 20260505003135 | 18 | 233 | 3.2 | 3.2 | 0.00 | 0.00 | 0.00 | 44 | 1011.6 |
| 20260505002631 | 18 | 243 | 3.2 | 3.2 | 0.00 | 0.00 | 0.00 | 43 | 1011.5 |
| 20260505002129 | 19 | 247 | 1.6 | 1.6 | 0.00 | 0.00 | 0.00 | 44 | 1011.5 |
| 20260505001626 | 19 | 246 | 3.2 | 3.2 | 0.00 | 0.00 | 0.00 | 43 | 1011.4 |
| 20260505001124 | 19 | 185 | 3.2 | 4.8 | 0.00 | 0.00 | 0.00 | 43 | 1011.5 |
| 20260505000620 | 19 | 254 | 1.6 | 1.6 | 0.00 | 0.00 | 0.00 | 43 | 1011.5 |
| 20260505000119 | 19 | 254 | 1.6 | 1.6 | 0.00 | 0.00 | 0.00 | 43 | 1011.6 |
| 20260504235615 | 19 | 251 | 1.6 | 3.2 | 0.00 | 0.00 | 0.00 | 42 | 1011.6 |
| 20260504235111 | 19 | 248 | 3.2 | 3.2 | 0.00 | 0.00 | 0.00 | 42 | 1011.4 |
| 20260504234608 | 19 | 249 | 1.6 | 3.2 | 0.00 | 0.00 | 0.00 | 42 | 1011.5 |
| 20260504234106 | 20 | 256 | 1.6 | 1.6 | 0.00 | 0.00 | 0.00 | 41 | 1011.3 |
| 20260504233602 | 20 | 191 | 3.2 | 3.2 | 0.00 | 0.00 | 0.00 | 41 | 1011.4 |
| 20260504233058 | 20 | 260 | 0.0 | 1.6 | 0.00 | 0.00 | 0.00 | 41 | 1011.5 |
| 20260504232555 | 20 | 250 | 3.2 | 3.2 | 0.00 | 0.00 | 0.00 | 41 | 1011.4 |
| 20260504232053 | 20 | 186 | 4.8 | 4.8 | 0.00 | 0.00 | 0.00 | 40 | 1011.3 |
| 20260504231549 | 20 | 225 | 4.8 | 8.0 | 0.00 | 0.00 | 0.00 | 41 | 1011.2 |
| 20260504231045 | 20 | 262 | 1.6 | 3.2 | 0.00 | 0.00 | 0.00 | 40 | 1011.4 |
| 20260504230542 | 20 | 243 | 3.2 | 3.2 | 0.00 | 0.00 | 0.00 | 42 | 1011.4 |
| 20260504230041 | 20 | 256 | 1.6 | 1.6 | 0.00 | 0.00 | 0.00 | 41 | 1011.4 |
| 20260504225538 | 20 | 247 | 3.2 | 3.2 | 0.00 | 0.00 | 0.00 | 40 | 1011.3 |
| 20260504225035 | 20 | 250 | 1.6 | 1.6 | 0.00 | 0.00 | 0.00 | 39 | 1011.4 |
| 20260504224531 | 20 | 262 | 3.2 | 3.2 | 0.00 | 0.00 | 0.00 | 40 | 1011.5 |
| 20260504224028 | 20 | 259 | 1.6 | 1.6 | 0.00 | 0.00 | 0.00 | 39 | 1011.2 |
| 20260504223525 | 20 | 254 | 3.2 | 3.2 | 0.00 | 0.00 | 0.00 | 39 | 1011.6 |
| 20260504223021 | 20 | 190 | 8.0 | 11.3 | 0.00 | 0.00 | 0.00 | 39 | 1011.4 |
| 20260504222518 | 20 | 207 | 6.4 | 8.0 | 0.00 | 0.00 | 0.00 | 39 | 1011.6 |
| 20260504222016 | 20 | 209 | 6.4 | 8.0 | 0.00 | 0.00 | 0.00 | 38 | 1011.3 |
| 20260504221513 | 20 | 277 | 1.6 | 1.6 | 0.00 | 0.00 | 0.00 | 38 | 1011.4 |
| 20260504221009 | 20 | 274 | 3.2 | 3.2 | 0.00 | 0.00 | 0.00 | 38 | 1011.4 |
| 20260504220506 | 20 | 262 | 3.2 | 4.8 | 0.00 | 0.00 | 0.00 | 38 | 1011.5 |
| 20260504220003 | 20 | 257 | 1.6 | 1.6 | 0.00 | 0.00 | 0.00 | 38 | 1011.5 |
| 20260504215459 | 20 | 262 | 4.8 | 8.0 | 0.00 | 0.00 | 0.00 | 38 | 1011.6 |
| 20260504214956 | 20 | 223 | 4.8 | 4.8 | 0.00 | 0.00 | 0.00 | 37 | 1011.5 |
| 20260504214453 | 20 | 262 | 1.6 | 3.2 | 0.00 | 0.00 | 0.00 | 37 | 1011.5 |
| 20260504213949 | 20 | 199 | 4.8 | 4.8 | 0.00 | 0.00 | 0.00 | 38 | 1011.7 |
| 20260504213445 | 21 | 266 | 3.2 | 3.2 | 0.00 | 0.00 | 0.00 | 37 | 1011.6 |
| 20260504212943 | 20 | 286 | 3.2 | 4.8 | 0.00 | 0.00 | 0.00 | 38 | 1011.6 |
| 20260504212438 | 20 | 246 | 0.0 | 1.6 | 0.00 | 0.00 | 0.00 | 38 | 1011.8 |
| 20260504211936 | 20 | 240 | 4.8 | 4.8 | 0.00 | 0.00 | 0.00 | 38 | 1011.7 |
| 20260504211432 | 21 | 206 | 4.8 | 8.0 | 0.00 | 0.00 | 0.00 | 38 | 1011.5 |
| 20260504210930 | 21 | 254 | 1.6 | 3.2 | 0.00 | 0.00 | 0.00 | 38 | 1011.5 |
| 20260504210427 | 21 | 203 | 3.2 | 3.2 | 0.00 | 0.00 | 0.00 | 38 | 1011.5 |
| 20260504205924 | 21 | 226 | 3.2 | 3.2 | 0.00 | 0.00 | 0.00 | 38 | 1011.5 |
| 20260504205421 | 20 | 245 | 1.6 | 1.6 | 0.00 | 0.00 | 0.00 | 38 | 1011.8 |
| 20260504204919 | 20 | 245 | 1.6 | 3.2 | 0.00 | 0.00 | 0.00 | 38 | 1011.4 |
| 20260504204417 | 20 | 184 | 4.8 | 4.8 | 0.00 | 0.00 | 0.00 | 38 | 1011.4 |
| 20260504203916 | 20 | 204 | 4.8 | 4.8 | 0.00 | 0.00 | 0.00 | 38 | 1011.5 |
| 20260504203414 | 21 | 181 | 6.4 | 9.7 | 0.00 | 0.00 | 0.00 | 37 | 1011.6 |
| 20260504202909 | 21 | 245 | 3.2 | 4.8 | 0.00 | 0.00 | 0.00 | 37 | 1011.8 |
| 20260504202406 | 21 | 262 | 1.6 | 3.2 | 0.00 | 0.00 | 0.00 | 37 | 1011.7 |
| 20260504201903 | 21 | 211 | 3.2 | 3.2 | 0.00 | 0.00 | 0.00 | 37 | 1011.7 |
| 20260504201401 | 21 | 239 | 3.2 | 3.2 | 0.00 | 0.00 | 0.00 | 36 | 1011.7 |
| 20260504200857 | 21 | 240 | 4.8 | 4.8 | 0.00 | 0.00 | 0.00 | 36 | 1011.9 |
| 20260504200354 | 21 | 248 | 4.8 | 4.8 | 0.00 | 0.00 | 0.00 | 37 | 1011.9 |
| 20260504195851 | 21 | 250 | 4.8 | 8.0 | 0.00 | 0.00 | 0.00 | 37 | 1011.8 |
| 20260504195346 | 21 | 232 | 4.8 | 4.8 | 0.00 | 0.00 | 0.00 | 37 | 1012.0 |
| 20260504194843 | 21 | 240 | 3.2 | 3.2 | 0.00 | 0.00 | 0.00 | 36 | 1012.0 |
| 20260504194339 | 21 | 283 | 3.2 | 4.8 | 0.00 | 0.00 | 0.00 | 36 | 1011.9 |
| 20260504193835 | 21 | 233 | 6.4 | 8.0 | 0.00 | 0.00 | 0.00 | 36 | 1011.9 |
| 20260504193333 | 21 | 278 | 1.6 | 3.2 | 0.00 | 0.00 | 0.00 | 35 | 1012.0 |
| 20260504192831 | 21 | 271 | 3.2 | 3.2 | 0.00 | 0.00 | 0.00 | 36 | 1012.1 |
| 20260504192329 | 21 | 132 | 3.2 | 4.8 | 0.00 | 0.00 | 0.00 | 36 | 1012.2 |
| 20260504191827 | 21 | 229 | 4.8 | 4.8 | 0.00 | 0.00 | 0.00 | 35 | 1012.1 |
| 20260504191324 | 21 | 268 | 3.2 | 4.8 | 0.00 | 0.00 | 0.00 | 35 | 1012.3 |
| 20260504190820 | 21 | 217 | 3.2 | 4.8 | 0.00 | 0.00 | 0.00 | 35 | 1012.4 |
| 20260504190316 | 21 | 187 | 6.4 | 11.3 | 0.00 | 0.00 | 0.00 | 36 | 1012.3 |
| 20260504185813 | 21 | 343 | 4.8 | 4.8 | 0.00 | 0.00 | 0.00 | 35 | 1012.6 |
| 20260504185310 | 21 | 179 | 3.2 | 4.8 | 0.00 | 0.00 | 0.00 | 35 | 1012.6 |
| 20260504184806 | 22 | 179 | 4.8 | 8.0 | 0.00 | 0.00 | 0.00 | 34 | 1012.7 |
| 20260504184302 | 22 | 293 | 1.6 | 1.6 | 0.00 | 0.00 | 0.00 | 34 | 1012.7 |
| 20260504183758 | 22 | 207 | 1.6 | 4.8 | 0.00 | 0.00 | 0.00 | 34 | 1012.7 |
| 20260504183255 | 22 | 270 | 1.6 | 3.2 | 0.00 | 0.00 | 0.00 | 36 | 1012.9 |
| 20260504182753 | 21 | 185 | 3.2 | 4.8 | 0.00 | 0.00 | 0.00 | 35 | 1012.9 |
| 20260504182249 | 22 | 269 | 6.4 | 8.0 | 0.00 | 0.00 | 0.00 | 33 | 1013.0 |